EW9663 Weather Reports


time (UTC)temp
C
wind
direction
speed
KPH
gust
KPH
rain 1hr
cm
rain 24hr
cm
rain mn
cm
humidity
%
barometer
mb
20180625080251 17 313 0.0 0.0 0.03 0.03 0.03 94 1017.0
20180625074750 17 313 0.0 9.7 0.03 0.03 0.03 94 1017.0
20180625073250 17 313 0.0 9.7 0.03 0.03 0.03 94 1017.0
20180625071743 17 313 0.0 9.7 0.03 0.03 0.03 94 1016.8
20180625070239 17 313 0.0 0.0 0.00 0.00 0.00 94 1016.6
20180625064739 17 313 0.0 9.7 0.00 0.00 0.00 94 1016.5
20180625063235 17 313 0.0 8.0 0.00 0.00 0.00 94 1016.3
20180625061736 17 313 4.8 9.7 0.00 0.00 0.00 94 1016.2
20180625060234 17 313 4.8 8.0 0.00 0.00 0.00 94 1016.3
20180625054730 17 313 0.0 8.0 0.00 0.00 0.00 94 1016.3
20180625053228 17 313 0.0 6.4 0.00 0.00 0.00 94 1016.2
20180625051728 17 313 4.8 9.7 0.00 0.00 0.00 94 1016.1
20180625050226 17 313 1.6 9.7 0.00 0.00 0.00 94 1015.8
20180625044728 17 313 4.8 9.7 0.00 0.00 0.00 94 1015.5
20180625043224 17 313 6.4 9.7 0.00 0.00 0.00 93 1015.3
20180625041723 17 317 0.0 9.7 0.00 0.00 0.00 93 1015.1
20180625040223 17 317 3.2 9.7 0.00 0.00 0.00 93 1015.2
20180625034722 17 319 1.6 12.9 0.00 0.00 0.00 93 1015.2
20180625033220 17 317 3.2 9.7 0.00 0.00 0.00 93 1015.3
20180625031723 17 307 6.4 9.7 0.00 0.00 0.00 93 1015.3
20180625030220 17 295 3.2 11.3 0.00 0.00 0.00 93 1015.0
20180625024718 17 294 3.2 11.3 0.00 0.00 0.00 93 1015.0
20180625023220 17 294 1.6 8.0 0.00 0.00 0.00 93 1015.0
20180625021719 17 294 0.0 11.3 0.00 0.00 0.00 93 1015.0
20180625020216 17 294 0.0 8.0 0.00 0.00 0.00 93 1015.1
20180625014714 17 294 0.0 11.3 0.00 0.00 0.00 93 1015.3
20180625013213 17 294 4.8 11.3 0.00 0.00 0.00 93 1015.6
20180625011712 17 294 6.4 11.3 0.00 0.00 0.00 92 1015.6
20180625010206 17 294 4.8 12.9 0.00 0.00 0.00 92 1015.7
20180625004706 17 301 4.8 9.7 0.00 0.00 0.00 92 1015.8
20180625003206 17 301 8.0 12.9 0.00 0.00 0.00 92 1015.9
20180625001704 17 301 3.2 12.9 0.00 0.00 0.00 92 1015.8
20180625000203 17 301 6.4 12.9 0.00 0.00 0.00 92 1016.0
20180624234704 17 292 8.0 14.5 0.00 0.00 0.00 91 1016.0
20180624233155 17 291 6.4 16.1 0.00 0.00 0.00 91 1016.0
20180624231655 17 326 4.8 14.5 0.00 0.00 0.00 90 1016.1
20180624230151 18 311 3.2 14.5 0.00 0.00 0.00 90 1016.1
20180624224651 18 316 6.4 17.7 0.00 0.00 0.00 90 1016.2
20180624223150 18 304 9.7 14.5 0.00 0.00 0.00 90 1016.2
20180624221650 18 309 8.0 14.5 0.00 0.00 0.00 89 1016.1
20180624220149 18 296 6.4 12.9 0.00 0.00 0.00 89 1016.2
20180624214650 18 306 8.0 14.5 0.00 0.00 0.00 89 1016.1
20180624213147 18 306 8.0 17.7 0.00 0.00 0.00 89 1016.1
20180624211647 18 327 3.2 12.9 0.00 0.00 0.00 89 1015.7
20180624210148 18 329 6.4 12.9 0.00 0.00 0.00 89 1015.8
20180624204649 18 331 0.0 12.9 0.00 0.00 0.00 90 1015.7
20180624203145 18 322 4.8 14.5 0.00 0.00 0.00 90 1015.6
20180624201644 18 325 8.0 12.9 0.00 0.00 0.00 90 1015.5
20180624200143 18 308 6.4 12.9 0.00 0.00 0.00 90 1015.6
20180624194644 18 321 8.0 12.9 0.00 0.00 0.00 90 1015.7
20180624193145 18 317 6.4 14.5 0.00 0.00 0.00 90 1015.6
20180624191642 18 333 9.7 14.5 0.00 0.00 0.00 90 1015.5
20180624190142 18 317 6.4 16.1 0.00 0.00 0.00 90 1015.5
20180624184643 18 311 6.4 12.9 0.00 0.00 0.00 90 1015.6
20180624183142 18 300 4.8 16.1 0.00 0.00 0.00 89 1015.4
20180624181642 19 304 4.8 12.9 0.00 0.00 0.00 88 1015.4
20180624180141 19 278 3.2 8.0 0.00 0.00 0.00 87 1015.2
20180624174641 19 284 8.0 12.9 0.00 0.00 0.00 86 1015.4
20180624173140 19 297 3.2 8.0 0.00 0.00 0.00 86 1015.4
20180624171642 19 298 0.0 12.9 0.00 0.00 0.00 87 1015.3
20180624170140 20 302 4.8 11.3 0.00 0.00 0.00 86 1015.3
20180624164640 20 294 6.4 14.5 0.00 0.00 0.00 85 1015.4
20180624163135 20 298 8.0 16.1 0.00 0.00 0.00 85 1015.2
20180624161634 20 316 8.0 14.5 0.00 0.00 0.00 84 1015.4
20180624160133 20 279 9.7 16.1 0.00 0.00 0.00 84 1015.3
20180624154633 20 302 3.2 12.9 0.00 0.00 0.00 83 1015.2
20180624153131 20 289 9.7 16.1 0.00 0.00 0.00 84 1015.1
20180624151633 20 311 6.4 12.9 0.00 0.00 0.00 84 1015.2
20180624150130 20 306 8.0 12.9 0.00 0.00 0.00 83 1015.2
20180624144631 20 289 8.0 16.1 0.00 0.00 0.00 84 1015.3
20180624143130 20 309 3.2 16.1 0.00 0.00 0.00 84 1015.4
20180624141629 20 289 4.8 16.1 0.00 0.00 0.00 83 1015.5
20180624140129 20 273 8.0 17.7 0.00 0.00 0.00 84 1015.5
20180624134630 20 294 8.0 17.7 0.00 0.00 0.00 85 1015.5
20180624133127 20 304 9.7 16.1 0.00 0.00 0.00 86 1015.7
20180624131624 20 306 9.7 12.9 0.00 0.00 0.00 85 1015.8
20180624130124 20 290 9.7 16.1 0.00 0.00 0.00 84 1015.8
20180624124621 20 284 0.0 14.5 0.00 0.00 0.00 86 1016.0
20180624123119 20 288 4.8 12.9 0.00 0.00 0.00 86 1016.0
20180624121620 20 304 3.2 9.7 0.00 0.00 0.00 86 1016.0
20180624120117 20 298 4.8 12.9 0.00 0.00 0.00 86 1016.0
20180624114616 20 271 1.6 11.3 0.00 0.00 0.00 86 1016.1
20180624113115 20 271 0.0 12.9 0.00 0.00 0.00 86 1016.1
20180624111614 20 286 4.8 12.9 0.00 0.00 0.00 86 1016.1
20180624110112 20 236 0.0 0.0 0.00 0.00 0.00 86 1016.0
20180624104610 20 236 0.0 6.4 0.00 0.00 0.00 87 1016.1
20180624103110 20 216 0.0 8.0 0.00 0.00 0.00 88 1016.0
20180624101606 20 229 0.0 1.6 0.00 0.00 0.00 89 1015.9
20180624100103 19 231 0.0 9.7 0.00 0.00 0.00 91 1015.8
20180624094602 18 209 1.6 6.4 0.00 0.00 0.00 92 1015.8
20180624093101 18 212 0.0 0.0 0.00 0.00 0.00 92 1015.8
20180624091559 18 212 1.6 8.0 0.00 0.00 0.00 93 1015.8
20180624090100 18 219 3.2 9.7 0.00 0.00 0.00 93 1015.8
20180624084559 18 267 3.2 9.7 0.00 0.00 0.00 93 1015.8
20180624083059 18 267 0.0 0.0 0.00 0.00 0.00 93 1015.7
20180624081555 17 267 0.0 0.0 0.00 0.00 0.00 93 1015.7